Fort Lauderdale, FL

11:24 AM EST on December 10, 2019 (GMT -0500)
Fort Lauderdale Executive

Weather History for KFXE - October, 2019

Change the Weather History Date:

Saturday, October 12, 2019

  Actual Average Record
Temperature  
Mean Temperature 78 °F -  
Max Temperature 82 °F 87 °F 93 °F (1985)
Min Temperature 73 °F 71 °F 63 °F (1988)
Cooling Degree Days 12    
Growing Degree Days 28 (Base 50)    
Moisture  
Dew Point 69 °F    
Average Humidity 71    
Maximum Humidity 91    
Minimum Humidity 62    
Precipitation  
Precipitation 0.00 in - - ()
Sea Level Pressure  
Sea Level Pressure 29.98 in    
Wind  
Wind Speed 10 mph ()    
Max Wind Speed 16 mph    
Max Gust Speed 22 mph    
Visibility 10.0 miles    
Events Rain    
Averages and records for this station are not official NWS values.
T = Trace of Precipitation, MM = Missing Value Source: Averaged Metar Reports

Daily Weather History Graph

Daily Weather History Graph

Search for Another Location

Airport or City:

Astronomy

Oct. 12, 2019 Rise Set
Actual Time 7:18 AM EDT 6:55 PM EDT
Civil Twilight 6:54 AM EDT 7:19 PM EDT
Nautical Twilight 6:28 AM EDT 7:45 PM EDT
Astronomical Twilight 6:01 AM EDT 8:12 PM EDT
Moon 6:39 PM EDT (10/12) 6:08 AM EDT (10/12)
Length of Visible Light 12h 24m
Length of Day
11h 37m
Waxing Gibbous, 99% of the Moon is Illuminated
Oct 12
Waxing Gibbous
Oct 13
Full
Oct 21
Last Quarter
Oct 27
New
Nov 4
First Quarter

Hourly Weather History & Observations

Time (EDT) Temp. Heat Index Dew Point Humidity Pressure Visibility Wind Dir Wind Speed Gust Speed Precip Events Conditions
12:07 AM 73.9 °F - 71.1 °F 91% 29.98 in 10.0 mi NNE 6.9 mph - 0.00 in Rain Light Rain
12:53 AM 77.0 °F - 71.1 °F 82% 29.99 in 10.0 mi NE 10.4 mph - 0.00 in Rain Light Rain
1:53 AM 78.1 °F - 69.1 °F 74% 29.98 in 10.0 mi ENE 9.2 mph - 0.00 in   Overcast
2:53 AM 78.1 °F - 66.9 °F 68% 29.96 in 10.0 mi ENE 9.2 mph - N/A   Overcast
3:53 AM 78.1 °F - 66.9 °F 68% 29.94 in 10.0 mi NE 8.1 mph - N/A   Overcast
4:53 AM 77.0 °F - 66.9 °F 71% 29.95 in 10.0 mi ENE 8.1 mph - N/A   Mostly Cloudy
5:53 AM 77.0 °F - 66.9 °F 71% 29.95 in 10.0 mi ENE 10.4 mph - N/A   Scattered Clouds
6:53 AM 77.0 °F - 68.0 °F 74% 29.96 in 10.0 mi ENE 10.4 mph - N/A   Overcast
7:53 AM 78.1 °F - 69.1 °F 74% 29.97 in 10.0 mi ENE 9.2 mph - N/A   Scattered Clouds
8:53 AM 79.0 °F - 69.1 °F 72% 29.97 in 10.0 mi East 11.5 mph - N/A   Mostly Cloudy
9:53 AM 81.0 °F 84.4 °F 70.0 °F 69% 29.98 in 10.0 mi East 15.0 mph - N/A   Scattered Clouds
10:53 AM 80.1 °F 83.2 °F 70.0 °F 71% 30.00 in 10.0 mi ENE 13.8 mph - N/A   Scattered Clouds
11:53 AM 82.0 °F 85.5 °F 69.1 °F 65% 30.00 in 10.0 mi ENE 15.0 mph - N/A   Overcast
12:53 PM 82.0 °F 85.5 °F 69.1 °F 65% 29.99 in 10.0 mi ENE 13.8 mph - N/A   Mostly Cloudy
1:53 PM 82.0 °F 84.9 °F 68.0 °F 62% 29.98 in 10.0 mi ENE 13.8 mph 19.6 mph N/A   Mostly Cloudy
2:53 PM 82.0 °F 85.5 °F 69.1 °F 65% 29.96 in 10.0 mi NE 12.7 mph 19.6 mph N/A   Overcast
3:53 PM 82.0 °F 85.5 °F 69.1 °F 65% 29.96 in 10.0 mi ENE 15.0 mph - N/A   Mostly Cloudy
4:53 PM 82.0 °F 85.5 °F 69.1 °F 65% 29.96 in 10.0 mi NE 11.5 mph - N/A   Scattered Clouds
5:53 PM 82.0 °F 85.5 °F 69.1 °F 65% 29.97 in 10.0 mi NE 12.7 mph 18.4 mph N/A   Mostly Cloudy
6:53 PM 80.1 °F 82.9 °F 69.1 °F 69% 29.98 in 10.0 mi ENE 11.5 mph - N/A   Mostly Cloudy
7:53 PM 79.0 °F - 71.1 °F 77% 29.99 in 10.0 mi NE 10.4 mph - 0.00 in   Mostly Cloudy
8:53 PM 79.0 °F - 70.0 °F 74% 30.00 in 10.0 mi ENE 16.1 mph 21.9 mph N/A   Mostly Cloudy
9:53 PM 79.0 °F - 70.0 °F 74% 30.01 in 10.0 mi ENE 16.1 mph - N/A   Overcast
10:53 PM 79.0 °F - 70.0 °F 74% 30.03 in 10.0 mi East 12.7 mph - N/A   Mostly Cloudy
11:53 PM 79.0 °F - 66.9 °F 66% 30.03 in 10.0 mi East 15.0 mph - N/A   Scattered Clouds